Location: Sungai Anya
(2.6167°N, 114.0500°E)
Time: 19:16:40
(UTC+00:00)

MOS 1-B Rocket - Pass Details

Date: 19 October 2021
Orbit: 890 x 1605 km, 99.0° (Epoch: 08 December)

Event Time Altitude Azimuth Distance (km) Brightness Sun altitude
Rises 10:28:46 0° 7° (N) 3,669 6.8 -5.4°
Reaches altitude 10° 10:31:18 10° 5° (N) 2,660 6.2 -6.0°
Maximum altitude 10:37:03 67° 284° (WNW) 970 4.3 -7.4°
Drops below altitude 10° 10:42:35 10° 201° (SSW) 2,558 6.6 -8.8°
Sets 10:44:59 0° 198° (SSW) 3,517 7.3 -9.4°
